EUTELSAT 33A

Last updated on Thu Feb 08 2018 00:19:22 GMT+0000 (Coordinated Universal Time)

1 27948U 03043A 18038.19563211 .00000013 00000-0 00000+0 0 9991 2 27948 2.8275 77.2228 0005173 183.4397 204.7236 0.98882848 52720
UTC large
Height (km)
Speed (km/s)
/
Latitude / Longitude
Inclination (degrees)
Orbital Period (minutes)
Azimuth
Elevation
Range (km)
Doppler Factor

Next 0 passes for location: London (51.5072 / 0.1276)

Sorry there are no passes over London.